{"data":{"norad_id":59438,"epoch":"2026-09-21T21:19:57.039168Z","epoch_age_seconds":45341,"freshness":"FRESH","line1":"1 59438U 24065T   26264.88885462  .00002724  00000+0  91714-4 0  9995","line2":"2 59438  53.1610  87.1363 0001225  84.1304 275.9838 15.34405927139011","mean_motion":15.34405927,"eccentricity":0.0001225,"inclination_deg":53.161,"raan_deg":87.1363,"arg_perigee_deg":84.1304,"mean_anomaly_deg":275.9838,"bstar":9.1714e-5,"rev_number":13901,"period_min":93.847395572528,"perigee_km":461.84762319932,"apogee_km":463.52362474219,"semimajor_km":6840.8226239708,"source":"CELESTRAK","updated_at":"2026-09-22T09:00:48.942198Z"}}